Probability
0 0 0 0 0 0 0 0 0 0 0 0 0 1 0 1 1 1 0 1 2 3 3 3 4 5 4 2 1 0 0 1 2 2 3 5 6 6 5 4 4 4 3 4 5 4 3 3 3
0 0 0 0 0 0 0 0 0 0 0 0 1 1 1 0 0 0 0 0 1 3 3 3 4 5 5 3 1 0 0 0 1 2 2 3 3 4 3 4 5 4 3 4 4 4 3 3 3
0 0 0 0 0 0 0 0 1 2 1 0 1 1 1 0 0 0 0 0 1 2 3 4 5 6 6 5 3 1 1 1 1 2 2 1 1 1 1 2 3 3 3 4 4 3 3 3 3
0 0 0 0 0 0 0 0 1 2 2 1 0 0 0 0 0 1 1 1 2 3 4 5 6 7 8 7 6 4 2 1 1 2 2 2 1 0 0 0 1 1 2 3 4 3 3 3 3
0 0 0 0 0 0 0 0 1 1 1 1 0 0 0 0 0 1 1 2 3 4 6 6 7 9 8 8 6 4 1 0 0 1 2 3 2 1 0 0 0 0 0 2 3 4 4 4 4
0 0 0 0 0 0 0 0 0 0 0 0 0 0 0 0 0 1 2 3 3 4 6 7 8 8 8 6 4 2 0 0 0 0 1 2 3 2 1 0 0 0 0 0 2 3 4 4 5
0 0 0 0 0 0 0 0 0 0 0 0 0 0 0 1 1 1 2 3 3 3 5 6 6 6 6 3 1 0 0 0 0 1 2 2 2 2 2 1 1 0 0 0 0 1 3 5 7
0 0 0 0 0 0 0 0 1 1 0 1 1 1 1 1 1 1 2 2 2 2 3 4 4 4 3 2 0 0 0 0 0 1 2 2 1 1 2 2 1 1 1 0 0 0 2 6 7
0 0 0 0 0 0 0 0 1 1 0 1 2 2 1 1 1 1 2 2 1 1 1 3 3 3 3 2 0 0 0 0 0 1 1 1 0 0 1 1 1 1 1 1 0 0 2 5 5
0 0 0 0 0 0 0 0 1 1 0 1 2 2 1 1 1 2 2 1 1 0 1 2 3 4 3 1 0 0 0 0 0 0 0 0 0 0 0 0 0 1 1 1 0 1 2 4 4
0 0 0 0 0 0 0 0 0 0 0 0 1 1 0 1 2 2 2 0 0 0 1 2 4 5 4 2 1 0 0 0 0 0 0 0 0 0 0 0 0 0 0 0 0 1 2 3 3
0 0 0 0 0 0 0 0 0 0 0 0 0 0 0 0 1 2 2 1 0 0 1 2 4 5 5 4 2 1 0 0 0 0 0 0 0 0 0 0 0 0 0 0 0 1 2 3 3
0 0 0 0 0 0 0 0 0 0 0 0 0 0 0 0 0 1 2 2 1 0 0 1 3 5 6 4 2 1 0 0 0 0 0 0 0 0 0 0 0 0 0 0 0 1 2 3 3
0 0 0 0 0 0 0 0 0 0 0 0 0 0 0 0 0 0 1 2 2 1 0 1 2 4 4 3 2 0 0 0 0 0 0 0 0 0 0 0 0 0 0 0 0 1 2 3 3
0 0 0 0 0 0 0 0 0 0 0 0 0 0 0 0 0 0 0 1 2 2 1 1 1 2 2 3 2 1 0 0 0 0 0 0 0 0 0 0 0 0 0 0 0 1 2 2 2
0 0 0 0 0 0 0 0 0 0 0 0 0 0 0 0 0 0 0 1 2 3 3 2 1 0 2 3 3 2 0 0 0 0 0 0 0 0 0 0 0 0 0 0 0 0 1 1 1
0 0 0 0 0 0 0 0 0 0 0 0 0 0 0 0 0 0 0 1 2 3 3 2 1 0 2 3 4 2 0 0 0 0 0 0 0 0 0 0 0 0 0 0 0 0 0 0 0
0 0 0 0 0 0 0 0 0 0 0 0 0 0 0 0 0 0 0 1 2 3 2 1 0 0 1 2 3 2 0 0 0 0 0 0 0 0 0 0 0 0 0 0 0 0 0 0 0
0 0 0 0 0 0 0 0 0 0 0 0 0 0 0 1 1 0 0 0 1 2 2 1 0 0 0 1 1 1 0 0 0 0 0 0 0 0 0 0 0 0 0 0 0 0 0 0 0
0 0 0 0 0 0 0 0 0 0 0 0 0 0 1 2 2 1 0 0 0 1 2 1 0 0 0 0 0 0 0 0 0 0 0 0 0 0 0 0 0 0 0 0 0 0 0 0 0
0 0 0 0 0 0 0 0 0 0 0 0 0 0 1 2 2 1 0 0 0 0 1 1 0 0 0 0 0 0 0 0 0 0 0 0 0 0 0 0 0 0 0 0 0 0 0 0 0
0 0 0 0 0 0 0 0 0 0 0 0 0 0 1 2 2 1 0 0 0 0 0 0 0 0 0 0 0 0 0 0 0 0 0 0 0 0 0 0 0 0 0 0 0 0 0 0 0
0 0 0 0 0 0 0 0 0 0 0 0 0 0 0 1 1 0 0 0 0 0 0 0 0 0 0 0 0 0 0 0 0 0 0 0 0 0 0 0 0 0 0 0 0 0 0 0 0
0 0 0 0 0 0 0 0 0 0 0 0 0 0 0 0 0 0 0 0 0 0 0 0 0 0 0 0 0 0 0 0 0 0 0 0 0 0 0 0 0 0 0 0 0 0 0 0 0
0 0 0 0 0 0 0 0 0 0 0 0 0 0 0 0 0 0 0 0 0 0 0 0 0 0 0 0 0 0 0 0 0 0 0 0 0 0 0 0 0 0 0 0 0 0 0 0 0
0 0 0 0 0 0 0 0 0 0 0 0 0 0 0 0 0 0 0 0 0 0 0 0 0 0 0 0 0 0 0 0 0 0 0 0 0 0 0 0 0 0 0 0 0 0 0 0 0
0 0 0 0 0 0 0 0 0 0 0 0 0 0 0 0 0 0 0 0 0 0 0 0 0 0 0 0 0 0 0 0 0 0 0 0 0 0 0 0 0 0 0 0 0 0 0 0 0
0 0 0 0 0 0 0 0 0 0 0 0 0 0 0 0 0 0 0 0 0 0 0 0 0 0 0 0 0 0 0 0 0 0 0 0 0 0 0 0 0 0 0 0 0 0 0 0 0
0 0 0 0 0 0 0 0 0 0 0 0 0 0 0 0 0 0 0 0 0 0 0 0 0 0 0 0 0 0 0 0 0 0 0 0 0 0 0 0 0 0 0 0 0 0 0 0 0
0 0 0 0 0 0 0 0 0 0 0 0 0 0 0 0 0 0 0 0 0 0 0 0 0 0 0 0 0 0 0 0 0 0 0 0 0 0 0 0 0 0 0 0 0 0 0 0 0
Wind_Speed
12 10 6 2 2 4 5 3 1 2 3 5 6 5 6 6 6 5 2 4 6 6 6 6 7 7 7 7 7 8 8 8 8 8 8 8 8 7 7 6 6 5 5 5 6 6 6 6 6
10 7 3 3 3 4 4 3 1 4 4 4 4 4 5 6 7 6 3 4 5 6 6 5 7 7 7 8 8 8 8 8 8 8 8 7 7 7 7 6 6 5 4 4 4 5 6 6 6
9 7 3 3 4 4 2 3 5 5 4 3 3 4 4 5 6 4 2 2 4 6 6 7 7 7 7 7 8 8 8 8 8 8 8 8 8 7 7 7 6 6 5 4 4 5 5 5 5
4 3 3 4 5 3 2 2 4 4 3 2 3 4 5 7 4 4 3 3 5 5 6 7 8 7 7 7 7 7 7 7 8 8 8 7 7 7 7 7 6 6 5 4 4 4 4 4 4
3 3 4 5 6 3 2 1 2 2 2 2 2 3 5 5 6 6 4 4 4 5 6 5 7 7 7 7 7 7 6 6 6 7 7 7 7 7 6 6 6 5 5 5 5 3 3 3 4
3 3 4 6 5 3 2 2 1 2 2 2 2 2 5 4 6 5 4 4 4 5 6 5 6 7 7 6 6 6 6 6 6 6 6 6 6 6 6 6 6 5 5 4 4 4 2 3 3
3 3 6 6 4 3 1 1 2 1 1 2 2 3 5 5 5 4 4 4 5 5 6 4 4 5 6 7 6 6 6 6 5 6 6 6 6 6 6 5 5 5 5 4 3 3 1 2 2
3 3 5 5 5 3 1 2 4 4 3 3 4 3 3 3 4 4 4 4 5 5 5 4 3 3 3 3 5 6 6 5 5 5 5 5 5 5 5 5 5 5 4 4 3 3 1 1 1
4 3 4 4 3 1 1 1 2 3 3 3 5 5 5 6 4 4 4 5 5 6 5 4 4 3 3 2 4 4 4 5 4 4 5 4 2 2 3 4 5 5 4 3 3 3 2 0 1
2 3 3 2 3 1 1 1 1 3 3 1 3 5 6 5 4 4 4 4 4 4 4 4 4 4 4 3 2 1 2 2 2 2 3 2 2 2 3 4 4 4 4 3 3 3 2 1 1
2 3 1 3 4 3 2 3 2 1 1 0 2 3 4 4 3 3 3 3 3 3 4 4 4 4 3 3 2 2 1 1 2 3 3 2 2 2 2 2 2 2 2 2 2 2 1 0 0
3 2 2 2 3 2 2 2 3 3 1 2 3 4 5 4 3 2 3 3 3 3 3 4 4 4 3 3 2 2 2 2 2 2 3 2 2 2 2 2 2 2 1 2 1 1 1 1 0
4 3 1 1 1 2 2 2 2 1 1 2 4 4 3 4 3 2 3 3 3 3 3 3 4 3 3 3 2 3 2 2 2 2 2 3 2 2 2 2 2 2 2 2 2 2 2 1 1
1 1 2 2 2 2 2 3 3 2 1 1 3 3 3 3 3 3 3 3 3 3 3 3 3 3 3 3 2 2 2 2 2 2 3 3 2 2 2 2 2 2 2 2 1 1 2 1 1
2 3 4 4 4 2 2 5 5 3 2 2 2 3 3 3 3 3 3 3 3 3 3 3 3 3 3 3 3 2 2 2 2 2 3 3 2 2 2 2 2 2 2 2 2 1 1 1 1
5 5 5 3 4 3 3 6 3 3 4 4 3 2 3 3 3 3 3 4 4 4 4 4 4 4 3 3 2 2 2 2 2 2 2 3 3 2 2 2 2 2 2 2 1 1 1 1 1
4 5 5 3 3 3 5 5 3 2 3 3 3 3 3 3 4 4 4 4 4 4 4 4 3 3 3 3 2 2 3 3 2 2 2 2 2 2 2 1 1 2 2 2 2 2 1 1 1
4 5 5 4 2 3 5 5 3 3 4 4 3 3 3 3 3 3 4 4 4 4 4 4 3 3 2 2 2 2 3 3 2 2 2 3 3 3 2 1 2 2 2 2 2 2 2 1 1
5 6 6 4 1 4 7 8 5 5 3 2 3 2 3 3 4 4 4 4 4 4 4 4 3 3 2 2 2 2 2 2 3 2 2 3 3 3 2 2 2 2 1 2 2 1 2 1 1
5 6 6 4 1 4 6 8 5 5 4 2 1 2 3 3 3 3 3 3 4 4 3 3 3 3 2 2 1 1 1 1 2 2 3 2 2 2 2 2 2 2 1 2 2 2 1 1 1
4 4 5 5 5 5 5 7 4 3 3 3 2 1 1 3 3 3 3 3 3 3 3 3 3 2 2 2 1 2 2 2 2 2 2 2 2 2 2 2 2 2 1 1 1 1 1 1 1
4 3 5 6 5 4 3 5 4 4 5 4 3 1 1 2 3 3 3 3 2 2 2 2 3 2 2 2 1 1 1 2 2 2 2 3 2 2 2 2 1 1 2 1 1 1 1 0 1
2 4 5 6 5 5 4 4 4 4 5 5 3 2 1 3 3 3 2 2 2 2 1 2 2 2 2 2 1 1 1 2 2 2 2 3 2 1 1 2 1 1 1 1 2 2 1 1 1
3 4 5 4 2 5 6 5 4 2 4 4 3 2 2 3 3 3 2 2 2 2 1 1 1 2 2 2 2 2 2 2 2 3 3 2 2 1 1 1 1 1 1 0 1 1 1 1 1
2 1 1 1 2 5 2 3 4 0 2 4 4 3 2 3 3 2 1 1 1 1 1 1 1 2 2 2 2 2 2 2 2 2 2 2 2 1 1 2 1 1 1 0 0 1 1 1 1
2 1 1 2 3 3 2 4 2 2 4 3 3 3 2 2 2 1 1 0 0 0 1 1 1 2 2 2 2 2 2 1 1 2 2 2 2 1 1 1 2 2 1 1 1 1 1 1 1
1 2 1 2 3 4 5 2 1 3 3 2 2 2 1 2 2 1 1 1 1 0 0 1 1 2 2 2 2 2 2 2 2 3 3 2 2 2 1 1 1 1 1 1 1 1 1 1 1
2 1 1 1 2 5 4 2 2 2 1 1 1 1 1 1 2 2 1 1 1 1 1 1 1 2 2 3 2 2 2 2 2 3 3 2 2 2 1 1 1 1 1 1 1 1 1 1 1
1 1 1 2 3 3 4 3 1 1 2 1 1 0 1 1 1 1 2 2 2 2 2 1 2 2 2 3 3 2 2 2 2 2 3 2 2 2 1 1 1 1 1 1 1 1 1 1 1
1 1 2 1 4 3 4 5 1 3 3 2 2 1 1 2 1 1 2 2 2 2 2 2 2 2 2 2 3 3 2 2 2 2 3 2 2 2 1 1 1 1 1 1 1 2 1 1 1
Wind_Direction
298 272 257 257 243 231 239 241 267 56 44 44 31 30 47 36 36 90 112 43 62 83 89 79 59 59 57 54 55 53 50 46 48 49 49 49 48 49 53 56 61 67 70 74 81 88 88 83 80
292 283 269 242 241 236 231 215 111 60 68 64 39 29 61 69 72 87 60 29 61 78 88 80 63 61 59 57 57 54 50 46 48 51 51 49 47 45 45 48 50 54 61 63 75 87 96 94 86
274 269 256 241 238 246 243 80 81 74 69 79 69 35 41 55 67 72 46 28 65 74 82 78 66 64 62 62 58 54 51 48 47 50 50 48 46 44 42 42 43 46 51 60 68 85 96 99 94
270 250 244 247 246 260 299 54 90 100 83 63 100 84 73 43 50 72 59 44 67 73 80 81 66 63 62 63 59 55 52 49 48 49 47 45 44 43 41 39 39 42 45 54 64 77 95 103 103
245 244 238 238 245 258 306 349 99 115 108 96 91 99 90 61 62 73 62 48 61 71 77 84 68 61 59 61 59 54 50 49 52 49 44 42 42 42 39 35 30 34 46 50 52 62 93 101 106
254 239 238 236 232 230 256 285 101 101 90 78 88 101 94 79 63 59 65 55 60 68 77 84 65 61 55 55 56 53 50 50 52 50 45 41 39 39 38 35 30 30 41 49 47 40 68 100 110
263 255 250 253 243 252 264 343 57 77 71 34 7 89 111 79 61 57 63 61 60 66 76 81 71 63 55 50 51 53 48 48 48 47 44 41 40 40 39 38 33 31 34 40 44 35 52 104 117
290 273 249 250 242 253 309 25 41 28 34 25 20 58 95 86 80 67 60 59 58 56 61 72 72 67 62 54 46 48 47 43 40 40 37 35 34 35 34 35 34 32 31 31 38 32 49 103 125
273 255 247 255 259 222 58 39 61 58 62 41 46 50 76 100 94 79 60 52 46 44 41 45 48 47 48 57 50 44 48 41 36 31 28 30 28 32 31 34 30 27 23 20 30 25 25 76 197
247 245 252 325 346 24 7 360 126 137 118 84 67 70 87 96 97 89 70 54 47 40 35 38 38 36 30 27 43 29 47 41 24 25 21 16 21 25 30 29 30 21 10 7 15 4 346 260 215
236 241 257 342 9 21 346 334 344 231 122 80 141 125 113 107 99 99 88 74 59 49 39 41 38 35 29 24 25 11 26 29 25 27 13 19 31 31 28 13 12 1 3 353 342 317 297 258 184
236 276 299 318 351 340 294 302 347 7 11 42 104 120 126 120 103 93 87 72 62 51 41 42 39 37 30 28 24 18 25 23 26 24 16 21 28 27 18 16 4 352 353 341 326 320 315 321 15
237 238 275 334 335 336 312 294 315 310 18 54 97 101 113 112 98 79 76 74 64 53 41 39 38 36 32 29 13 20 22 21 20 32 27 32 31 23 15 10 5 353 357 349 342 357 351 355 16
238 218 236 241 249 266 268 255 246 232 157 107 112 112 104 101 93 78 60 59 55 50 48 44 39 36 38 32 21 13 15 8 15 33 25 29 30 24 16 14 6 354 350 342 336 347 6 346 19
229 229 242 234 224 216 248 256 232 207 181 174 142 120 103 90 81 67 53 52 51 45 51 53 44 41 37 28 18 22 7 1 13 25 27 28 23 16 17 12 1 352 347 340 341 353 30 6 16
233 235 238 215 213 201 234 250 216 193 190 186 169 139 120 104 85 67 53 51 47 44 47 48 41 34 27 23 16 19 18 4 7 15 21 27 22 15 11 12 3 352 351 351 356 12 40 30 17
219 241 243 222 208 216 223 249 223 218 207 189 166 153 132 112 90 73 59 55 53 46 44 43 45 41 26 16 16 26 23 7 3 14 11 20 18 11 16 13 358 1 11 8 357 19 39 41 22
251 257 260 238 232 261 251 251 233 243 241 196 175 163 140 115 101 86 71 63 57 47 46 45 34 31 29 18 15 28 21 3 358 9 7 16 14 16 21 19 7 15 30 17 18 20 27 36 20
295 284 281 283 286 276 263 263 245 241 231 198 179 161 131 115 101 93 78 66 60 47 38 36 31 18 21 15 7 13 359 347 352 356 358 11 10 13 22 19 18 17 30 25 23 31 31 10 29
288 287 287 286 269 274 268 265 245 229 202 185 181 162 137 115 103 101 92 77 65 52 36 32 29 17 8 3 354 348 331 330 344 350 349 356 5 15 21 25 13 10 18 28 22 32 28 351 19
279 281 292 299 304 263 274 269 219 197 182 164 171 193 144 128 124 112 95 78 66 51 29 15 17 10 358 2 10 5 359 354 358 346 339 341 357 18 30 27 13 1 21 29 14 23 40 353 321
280 306 303 300 301 276 229 279 230 184 190 190 190 192 157 116 109 105 91 75 68 58 37 13 10 3 1 10 22 25 2 331 314 315 324 334 350 4 24 17 7 3 13 9 349 17 23 42 308
300 312 290 280 274 283 246 249 257 174 202 195 174 177 143 111 103 100 97 93 78 71 54 16 2 357 359 357 351 345 335 323 325 327 331 333 331 356 8 359 3 1 12 11 357 360 7 5 339
320 301 274 260 252 258 232 219 261 199 202 170 158 157 118 102 92 86 83 86 84 82 62 20 351 344 345 343 335 340 336 336 337 336 330 325 315 326 342 333 342 334 344 21 353 348 346 341 337
315 337 333 273 229 245 205 212 243 58 92 137 153 137 107 102 93 86 77 73 72 68 47 4 348 333 338 333 326 325 320 310 310 310 311 309 309 316 313 332 322 318 324 329 329 307 299 305 311
253 228 209 263 274 300 256 229 218 131 87 90 112 119 107 96 88 83 64 58 64 55 37 355 331 316 311 309 307 306 308 305 303 302 292 285 289 293 289 315 311 310 325 326 323 301 284 290 296
258 236 289 294 283 275 245 209 151 92 78 74 75 98 113 88 67 52 32 22 347 358 1 326 322 319 314 309 310 310 321 313 308 303 297 293 299 302 304 291 307 309 299 296 314 315 312 332 318
284 306 334 237 277 278 267 228 215 170 151 74 43 28 33 71 50 32 13 353 352 3 342 341 327 314 317 317 311 324 315 310 311 313 310 309 307 303 299 315 316 305 296 300 303 303 315 330 315
203 264 262 256 258 269 288 280 38 126 145 150 197 335 12 41 33 14 350 360 5 2 0 348 332 325 320 317 314 310 304 307 308 306 305 305 302 298 281 293 307 310 310 315 295 272 261 265 287
260 227 179 230 272 260 274 273 43 55 70 71 45 16 33 25 15 7 352 1 1 356 352 349 335 325 313 316 313 303 303 308 306 306 307 313 307 302 290 287 284 299 318 314 300 287 286 264 261